Terminal Aerodrome Forecast
Issued by NWS La Crosse, WI

Home | Current Version | Previous Version | Text Only | Print | Product List | Glossary On
Versions: 1 2 3 4 5 6 7 8 9 10 11 12 13 14 15 16 17 18 19 20 21 22 23 24 25 26 27 28 29 30 31 32 33 34 35 36 37 38 39 40
000
FTUS43 KARX 041009 AAA
TAFLSE
TAF AMD
KLSE 041009Z 0410/0506 16004KT P6SM SCT002 BKN050
     FM041330 18004KT P6SM SKC
     FM041900 20007KT 4SM HZ SKC
     FM050200 15004KT 4SM HZ SKC=

USA.gov is the U.S. government's official web portal to all federal, state and local government web resources and services.